Retour au catalogue

COSMOS 1375 DEB

ActifLEO
NORAD 18413·DEBRIS·🇷🇺 Russia

Lancé Jun 6, 1982 depuis Plesetsk Cosmodrome

Loading…

Prochains Passages (prochaines 24 heures)

TLE

FraisSource: Space-Track

Époque: Sep 13, 2026, 17:14 UTC

1 18413U 82055BC  26256.71838373  .00000542  00000-0  67684-3 0  9993
2 18413  65.8219 119.5044 0068371 106.1281 319.6858 13.71676103 36686

Suivez COSMOS 1375 DEB en temps réel avec AllMySat

Download on the App Store